TimeMST,TemperatureF,Dew PointF,Humidity,Sea Level PressureIn,VisibilityMPH,Wind Direction,Wind SpeedMPH,Gust SpeedMPH,PrecipitationIn,Events,Conditions,WindDirDegrees,DateUTC
12:15 AM,41.0,21.2,45,30.06,-9999.0,ENE,5.8,-,N/A,,Scattered Clouds,70,2012-12-01 07:15:00
12:35 AM,41.0,21.2,45,30.06,-9999.0,Calm,Calm,-,N/A,,Mostly Cloudy,0,2012-12-01 07:35:00
12:55 AM,41.0,21.2,45,30.07,-9999.0,SSE,3.5,-,N/A,,Overcast,150,2012-12-01 07:55:00
1:15 AM,41.0,23.0,49,30.06,-9999.0,WSW,6.9,16.1,N/A,,Overcast,240,2012-12-01 08:15:00
2:34 AM,41.0,23.0,49,30.09,-9999.0,South,5.8,-,N/A,,Overcast,190,2012-12-01 09:34:00
2:55 AM,41.0,23.0,49,30.10,-9999.0,Calm,Calm,-,N/A,,Overcast,0,2012-12-01 09:55:00
3:15 AM,41.0,23.0,49,30.10,-9999.0,NNW,3.5,-,N/A,,Overcast,340,2012-12-01 10:15:00
3:35 AM,41.0,23.0,49,30.10,-9999.0,WSW,10.4,-,N/A,,Overcast,240,2012-12-01 10:35:00
4:15 AM,41.0,23.0,49,30.10,-9999.0,SW,8.1,-,N/A,,Overcast,230,2012-12-01 11:15:00
5:35 AM,41.0,23.0,49,30.08,-9999.0,WSW,18.4,25.3,N/A,,Overcast,240,2012-12-01 12:35:00
6:15 AM,41.0,23.0,49,30.10,-9999.0,West,12.7,17.3,N/A,,Overcast,260,2012-12-01 13:15:00
6:35 AM,41.0,23.0,49,30.11,-9999.0,WSW,13.8,21.9,N/A,,Overcast,250,2012-12-01 13:35:00
6:55 AM,39.2,23.0,52,30.11,-9999.0,West,10.4,-,N/A,,Scattered Clouds,260,2012-12-01 13:55:00
7:15 AM,37.4,23.0,56,30.12,-9999.0,WSW,6.9,-,N/A,,Clear,240,2012-12-01 14:15:00
7:35 AM,37.4,23.0,56,30.13,-9999.0,West,9.2,-,N/A,,Scattered Clouds,260,2012-12-01 14:35:00
7:55 AM,35.6,23.0,60,30.13,-9999.0,WSW,9.2,-,N/A,,Scattered Clouds,250,2012-12-01 14:55:00
8:15 AM,37.4,23.0,56,30.13,-9999.0,WSW,9.2,-,N/A,,Clear,250,2012-12-01 15:15:00
8:35 AM,42.8,23.0,46,30.12,-9999.0,West,10.4,-,N/A,,Clear,280,2012-12-01 15:35:00
8:54 AM,42.8,23.0,46,30.13,-9999.0,West,10.4,-,N/A,,Clear,260,2012-12-01 15:54:00
9:14 AM,44.6,23.0,43,30.13,-9999.0,West,11.5,16.1,N/A,,Clear,260,2012-12-01 16:14:00
9:34 AM,46.4,23.0,40,30.13,-9999.0,West,13.8,23.0,N/A,,Clear,260,2012-12-01 16:34:00
9:55 AM,50.0,23.0,35,30.14,-9999.0,WSW,15.0,21.9,N/A,,Clear,240,2012-12-01 16:55:00
10:14 AM,50.0,23.0,35,30.13,-9999.0,WSW,16.1,23.0,N/A,,Clear,240,2012-12-01 17:14:00
10:35 AM,50.0,21.2,32,30.12,-9999.0,WSW,18.4,24.2,N/A,,Clear,240,2012-12-01 17:35:00
10:54 AM,50.0,21.2,32,30.12,-9999.0,SW,10.4,17.3,N/A,,Scattered Clouds,230,2012-12-01 17:54:00
11:15 AM,50.0,23.0,35,30.12,-9999.0,WSW,16.1,25.3,N/A,,Scattered Clouds,250,2012-12-01 18:15:00
11:34 AM,50.0,21.2,32,30.11,-9999.0,SW,17.3,24.2,N/A,,Scattered Clouds,230,2012-12-01 18:34:00
11:55 AM,50.0,21.2,32,30.11,-9999.0,WSW,12.7,21.9,N/A,,Scattered Clouds,250,2012-12-01 18:55:00
12:15 PM,50.0,21.2,32,30.10,-9999.0,West,13.8,26.5,N/A,,Mostly Cloudy,260,2012-12-01 19:15:00
12:35 PM,53.6,21.2,28,30.10,-9999.0,SW,10.4,-,N/A,,Overcast,220,2012-12-01 19:35:00
12:55 PM,53.6,21.2,28,30.09,-9999.0,WSW,15.0,20.7,N/A,,Scattered Clouds,240,2012-12-01 19:55:00
1:15 PM,53.6,21.2,28,30.08,-9999.0,SW,15.0,21.9,N/A,,Mostly Cloudy,230,2012-12-01 20:15:00
1:35 PM,53.6,19.4,26,30.08,-9999.0,SW,13.8,23.0,N/A,,Mostly Cloudy,230,2012-12-01 20:35:00
1:55 PM,51.8,19.4,28,30.07,-9999.0,SW,13.8,21.9,N/A,,Scattered Clouds,220,2012-12-01 20:55:00
2:15 PM,53.6,19.4,26,30.08,-9999.0,WSW,16.1,24.2,N/A,,Clear,240,2012-12-01 21:15:00
2:35 PM,53.6,19.4,26,30.07,-9999.0,WSW,11.5,17.3,N/A,,Clear,240,2012-12-01 21:35:00
3:14 PM,51.8,19.4,28,30.08,-9999.0,WSW,11.5,19.6,N/A,,Clear,250,2012-12-01 22:14:00
3:34 PM,51.8,17.6,26,30.09,-9999.0,WSW,16.1,-,N/A,,Clear,250,2012-12-01 22:34:00
3:55 PM,50.0,17.6,28,30.10,-9999.0,WSW,13.8,20.7,N/A,,Clear,250,2012-12-01 22:55:00
4:15 PM,50.0,17.6,28,30.10,-9999.0,WSW,13.8,20.7,N/A,,Clear,240,2012-12-01 23:15:00
4:54 PM,46.4,17.6,32,30.12,-9999.0,WSW,11.5,16.1,N/A,,Clear,240,2012-12-01 23:54:00
5:15 PM,42.8,15.8,34,30.14,-9999.0,WNW,3.5,-,N/A,,Clear,300,2012-12-02 00:15:00
5:35 PM,42.8,14.0,31,30.14,-9999.0,WNW,4.6,-,N/A,,Clear,300,2012-12-02 00:35:00
5:55 PM,41.0,14.0,33,30.14,-9999.0,West,5.8,-,N/A,,Clear,260,2012-12-02 00:55:00
6:15 PM,37.4,17.6,45,30.15,-9999.0,WSW,9.2,-,N/A,,Clear,250,2012-12-02 01:15:00
6:35 PM,35.6,17.6,48,30.15,-9999.0,Calm,Calm,-,N/A,,Clear,0,2012-12-02 01:35:00
6:55 PM,35.6,17.6,48,30.16,-9999.0,Calm,Calm,-,N/A,,Clear,0,2012-12-02 01:55:00
7:15 PM,32.0,15.8,51,30.15,-9999.0,Calm,Calm,-,N/A,,Clear,0,2012-12-02 02:15:00
7:35 PM,32.0,17.6,55,30.16,-9999.0,Calm,Calm,-,N/A,,Clear,0,2012-12-02 02:35:00
7:55 PM,30.2,15.8,55,30.16,-9999.0,Calm,Calm,-,N/A,,Clear,0,2012-12-02 02:55:00
8:15 PM,30.2,17.6,60,30.16,-9999.0,Calm,Calm,-,N/A,,Clear,0,2012-12-02 03:15:00
8:35 PM,28.4,15.8,59,30.16,-9999.0,Calm,Calm,-,N/A,,Clear,0,2012-12-02 03:35:00
8:55 PM,30.2,17.6,60,30.16,-9999.0,Calm,Calm,-,N/A,,Clear,0,2012-12-02 03:55:00
9:15 PM,28.4,15.8,59,30.16,-9999.0,Calm,Calm,-,N/A,,Clear,0,2012-12-02 04:15:00
9:35 PM,28.4,15.8,59,30.16,-9999.0,NNW,3.5,-,N/A,,Clear,340,2012-12-02 04:35:00
9:55 PM,28.4,19.4,69,30.16,-9999.0,NNE,3.5,-,N/A,,Clear,20,2012-12-02 04:55:00
10:15 PM,24.8,15.8,69,30.16,-9999.0,Calm,Calm,-,N/A,,Clear,0,2012-12-02 05:15:00
10:35 PM,24.8,15.8,69,30.17,-9999.0,Calm,Calm,-,N/A,,Clear,0,2012-12-02 05:35:00
10:55 PM,23.0,14.0,68,30.17,-9999.0,Calm,Calm,-,N/A,,Clear,0,2012-12-02 05:55:00
11:15 PM,24.8,15.8,69,30.17,-9999.0,Calm,Calm,-,N/A,,Clear,0,2012-12-02 06:15:00
11:35 PM,23.0,15.8,74,30.17,-9999.0,Calm,Calm,-,N/A,,Clear,0,2012-12-02 06:35:00
11:55 PM,23.0,14.0,68,30.16,-9999.0,Calm,Calm,-,N/A,,Clear,0,2012-12-02 06:55:00